Regional Weather Roundup
Issued by NWS

Home | Current Version | Previous Version | Graphics & Text | Print | Product List | Glossary On
Versions: 1 2 3 4 5 6 7 8 9 10 11 12 13 14 15 16 17 18 19 20 21 22 23 24 25 26 27 28 29 30 31 32 33 34 35 36 37 38 39 40 41 42 43 44 45 46 47 48 49 50
580
ASUS43 KOAX 101302
RWRNE

WEATHER ROUNDUP FOR NEBRASKA
NATIONAL WEATHER SERVICE OMAHA NE
700 AM CST SAT DEC 10 2016

NOTES: SATELLITE DATA IS BEING USED TO AUGMENT CLOUD COVER ABOVE
       12000 FEET.
       "FAIR" INDICATES FEW OR NO CLOUDS BELOW 12,000 FEET WITH NO
       SIGNIFICANT WEATHER AND/OR OBSTRUCTIONS TO VISIBILITY.

  * THESE STATIONS DO NOT REPORT WEATHER SUCH AS RAIN...SNOW OR FOG.

NEZ001>004-019>022-054>056-101400-
NEBRASKA PANHANDLE

CITY           SKY/WX    TMP DP  RH WIND       PRES   REMARKS
SCOTTSBLUFF    CLOUDY    15  10  80 E9        29.95S WCI   3
ALLIANCE       CLOUDY    13  10  88 SE10      29.96F WCI   0
CHADRON        CLOUDY     4   0  83 CALM      30.00F
KIMBALL        CLOUDY    25  22  87 SW10      29.91F WCI  15
SIDNEY         CLOUDY    17  14  88 S8        29.95F WCI   7
$$

NEZ057>060-069>072-079>082-101400-
SOUTHWEST NEBRASKA

CITY           SKY/WX    TMP DP  RH WIND       PRES   REMARKS
NORTH PLATTE   CLOUDY    19  13  77 E8        30.12S WCI   9
IMPERIAL       CLOUDY    17  14  88 SE12      30.05F WCI   4
LEXINGTON      CLOUDY    20  15  79 SE10      30.19S WCI   9
MCCOOK         CLOUDY    17  13  84 E5        30.16R WCI  10
OGALLALA       CLOUDY    18  15  86 E8        30.04F WCI   8
$$

NEZ005>010-023>029-035>040-094-101400-
NORTH CENTRAL NEBRASKA

CITY           SKY/WX    TMP DP  RH WIND       PRES   REMARKS
VALENTINE      CLOUDY     7   2  80 E12       30.13F WCI  -8
AINSWORTH      FLURRIES  10   8  89 E9        30.16F WCI  -3
BROKEN BOW     CLOUDY    19  15  84 SE16G23   30.17F WCI   4
O`NEILL        LGT SNOW  11   8  87 E12       30.24F WCI  -3
ORD            CLOUDY    18  14  84 E9        30.21F WCI   7
THEDFORD       CLOUDY    16  14  92 SE6       30.10F WCI   7
$$

NEZ041-046>049-061>064-073>077-083>087-101400-
SOUTH CENTRAL NEBRASKA

CITY           SKY/WX    TMP DP  RH WIND       PRES   REMARKS
GRAND ISLAND   CLEAR     19  16  88 SE10      30.28F WCI   7
AURORA         CLOUDY    19  16  90 SE9       30.29F WCI   7
HASTINGS       CLOUDY    21  14  74 SE14      30.26F WCI   8
HEBRON         CLOUDY    24  18  80 E3        30.34S
HOLDREGE       CLOUDY    19  14  79 SE12      30.20F WCI   7
KEARNEY *      CLOUDY    19  12  73 SE9       30.23F WCI   9
YORK           PTCLDY    19  16  86 SE7       30.32F WCI  10
$$

NEZ011>018-030>034-042>045-101400-
NORTHEAST NEBRASKA

CITY           SKY/WX    TMP DP  RH WIND       PRES   REMARKS
NORFOLK        LGT SNOW  17  13  84 E9        30.32F FOG     WCI   6
ALBION         CLOUDY    19  16  88 E12       30.27F WCI   7
BLAIR          LGT SNOW  22  18  86 NE3       30.38F
FREMONT        LGT SNOW  21  19  90 CALM      30.40R
TEKAMAH        LGT SNOW  20  17  88 N3        30.42S VSB 1
WAYNE          LGT SNOW  17  15  89 E6        30.37F WCI   9
$$

NEZ050>053-065>068-078-088>093-101400-
SOUTHEAST NEBRASKA

CITY           SKY/WX    TMP DP  RH WIND       PRES   REMARKS
LINCOLN        CLOUDY    23  16  74 E5        30.38F WCI  17
OMAHA EPPLEY   LGT SNOW  23  15  71 E5        30.40F WCI  17
BEATRICE       CLOUDY    26  19  74 SE5       30.36S WCI  20
FALLS CITY     CLOUDY    26  17  68 SE5       30.42S WCI  20
NEBRASKA CITY  CLOUDY    25  14  64 SE6       30.39F WCI  18
PLATTSMOUTH    CLOUDY    24  14  66 SE6       30.38F WCI  17
$$

NEZ044-045-051>053-067-101400-
OMAHA AREA

CITY           SKY/WX    TMP DP  RH WIND       PRES   REMARKS
OMAHA EPPLEY   LGT SNOW  23  15  71 E5        30.40F WCI  17
BLAIR          LGT SNOW  22  18  86 NE3       30.38F
FREMONT        LGT SNOW  21  19  90 CALM      30.40R
MILLARD        FLURRIES  25  19  77 CALM      30.41F
OFFUTT AFB     CLOUDY    23  17  77 E6        30.40F WCI  16
PLATTSMOUTH    CLOUDY    24  14  66 SE6       30.38F WCI  17
WAHOO          CLOUDY    22  18  82 E6        30.39S WCI  15
$$




USA.gov is the U.S. government's official web portal to all federal, state and local government web resources and services.